Regional Weather Roundup
Issued by NWS Albany, NY

Home | Current Version | Previous Version | Text Only | Print | Product List | Glossary On
Versions: 1 2 3 4 5 6 7 8 9 10 11 12 13 14 15 16 17 18 19 20 21 22 23 24 25 26 27 28 29 30 31 32 33 34 35 36 37 38 39 40 41 42 43 44 45 46 47 48 49 50
000
ASUS41 KALY 301510
RWRALY

NEW YORK STATE HOURLY WEATHER ROUNDUP
NATIONAL WEATHER SERVICE ALBANY NY
1100 AM EDT WED JUL 30 2014

NOTE: "FAIR" INDICATES FEW OR NO CLOUDS BELOW 12,000 FEET WITH NO
SIGNIFICANT WEATHER AND/OR NO OBSTRUCTIONS TO VISIBILITY.

NYZ032-033-038>043-046>054-057>066-NYZ062>081-301600-
EAST


CITY           SKY/WX    TMP DP  RH WIND       PRES   REMARKS
ALBANY         MOSUNNY   70  54  56 VRB3      30.04S
GLENS FALLS    MOSUNNY   68  55  63 CALM      30.02F
POUGHKEEPSIE   MOSUNNY   69  57  65 CALM      30.03F
NEWBURGH       MOSUNNY   70  54  56 CALM      30.05F
MONTGOMERY     SUNNY     72  56  57 VRB3      30.04S
WHITE PLAINS   MOSUNNY   71  53  52 N5        30.04R
ISLIP          MOSUNNY   77  53  43 NW6       30.01S
NEW YORK CITY  MOSUNNY   73  52  47 VRB3      30.03S
CENTRAL PARK   SUNNY     73  51  46 VRB5      30.06S
$$

NYZ005>009-017-018-044>046-055-056-301600-
CENTRAL


CITY           SKY/WX    TMP DP  RH WIND       PRES   REMARKS
FULTON         PTSUNNY   67  56  67 S6        30.00S
SYRACUSE       PTSUNNY   72  53  51 SW8       30.00S
ROME           CLOUDY    67  55  65 SE6       30.03F
ELMIRA         CLOUDY    62  56  80 CALM      30.03F
BINGHAMTON     PTSUNNY   64  53  67 SW6       30.06S
MONTICELLO     SUNNY     66  54  63 NW5       30.08S
$$

NYZ026>034-041>043-301600-
NORTH


CITY           SKY/WX    TMP DP  RH WIND       PRES   REMARKS
WATERTOWN      PTSUNNY   68  54  60 S3        29.99S
FORT DRUM      NOT AVBL
MASSENA        CLOUDY    70  56  61 SW10      29.99F
SARANAC LAKE   MOSUNNY   64  49  57 SW10      30.02S
PLATTSBURGH    MOSUNNY   66  57  72 SE7       30.01S
$$

NYZ001>004-010>016-019>021-301600-
WEST


CITY           SKY/WX    TMP DP  RH WIND       PRES   REMARKS
NIAGARA FALLS  PTSUNNY   70  60  70 S15       29.95F THUNDER
BUFFALO        MOSUNNY   67  57  70 SW13      29.98S
DUNKIRK        PTSUNNY   67  56  67 SW9       29.98S
JAMESTOWN      CLOUDY    57  54  88 S9        30.03R
WELLSVILLE     CLOUDY    59  53  80 SW8       30.05S
ROCHESTER      MOSUNNY   69  57  65 SW9       29.99S
PENN YAN       PTSUNNY   65  55  70 S9        30.02S
$$

             KEY
       WCI = WIND CHILL INDEX
       VSB = VISIBILITY
       HX  = HEAT INDEX
$$


USA.gov is the U.S. government's official web portal to all federal, state and local government web resources and services.